User: anonymous   Login
Location: *
(44.1392°N, 4.8079°E)
Time: 01:57:22
(UTC+00:00)
Language:

UNK - Orbit

View from above orbital plane
View from above orbital plane
View from above satellite
View from above satellite

Ground track
Ground track

The orbit data is extracted from the following two-line orbital elements,

1 27940U 03042B   21269.36563321  .00000158  00000-0  38258-4 0  9994
2 27940  98.1757  41.7118 0014567  28.0484 332.1501 14.65277577961655
Epoch (UTC): 26 September 2021 08:46:30
Eccentricity: 0.0014567
inclination: 98.1757°
perigee height: 666 km
apogee height: 686 km
right ascension of ascending node: 41.7118°
argument of perigee: 28.0484°
revolutions per day: 14.65277577
mean anomaly at epoch: 332.1501°
orbit number at epoch: 96165

The dashed part of the orbit path shows where the satellite is in the earth's shadow,  

DLR